| time (UTC) | temp F | wind direction | speed MPH | gust MPH | rain 1hr in | rain 24hr in | rain mn in | humidity % | barometer mb |
| 20260504044553 | 55 | 179 | 7.0 | 11.0 | 0.00 | 0.00 | 0.00 | 61 | 1007.4 |
| 20260504043046 | 55 | 186 | 5.0 | 16.0 | 0.00 | 0.00 | 0.00 | 60 | 1007.6 |
| 20260504041543 | 55 | 172 | 7.0 | 13.0 | 0.00 | 0.00 | 0.00 | 60 | 1007.6 |
| 20260504040054 | 56 | 185 | 6.0 | 16.0 | 0.00 | 0.00 | 0.00 | 59 | 1007.7 |
| 20260504034555 | 56 | 184 | 7.0 | 14.0 | 0.00 | 0.00 | 0.00 | 59 | 1007.9 |
| 20260504033054 | 55 | 184 | 4.0 | 10.0 | 0.00 | 0.00 | 0.00 | 61 | 1008.1 |
| 20260504031538 | 54 | 211 | 4.0 | 10.0 | 0.00 | 0.00 | 0.00 | 63 | 1008.2 |
| 20260504030044 | 54 | 187 | 3.0 | 8.0 | 0.00 | 0.00 | 0.00 | 64 | 1008.3 |
| 20260504024537 | 54 | 174 | 3.0 | 8.0 | 0.00 | 0.00 | 0.00 | 64 | 1008.3 |
| 20260504023042 | 54 | 178 | 3.0 | 7.0 | 0.00 | 0.00 | 0.00 | 65 | 1008.3 |
| 20260504021535 | 54 | 156 | 3.0 | 9.0 | 0.00 | 0.00 | 0.00 | 64 | 1008.3 |
| 20260504020037 | 55 | 157 | 4.0 | 7.0 | 0.00 | 0.00 | 0.00 | 62 | 1008.3 |
| 20260504014541 | 56 | 153 | 3.0 | 8.0 | 0.00 | 0.00 | 0.00 | 61 | 1008.3 |
| 20260504013033 | 56 | 196 | 4.0 | 10.0 | 0.00 | 0.00 | 0.00 | 59 | 1008.4 |
| 20260504011532 | 56 | 150 | 3.0 | 10.0 | 0.00 | 0.00 | 0.00 | 58 | 1008.3 |
| 20260504010031 | 57 | 192 | 4.0 | 11.0 | 0.00 | 0.00 | 0.00 | 55 | 1008.3 |
| 20260504004532 | 57 | 201 | 5.0 | 12.0 | 0.00 | 0.00 | 0.00 | 54 | 1008.4 |
| 20260504003034 | 57 | 180 | 4.0 | 9.0 | 0.00 | 0.00 | 0.00 | 53 | 1008.3 |
| 20260504001527 | 58 | 185 | 4.0 | 10.0 | 0.00 | 0.00 | 0.00 | 53 | 1008.4 |
| 20260504000026 | 58 | 188 | 4.0 | 8.0 | 0.00 | 0.00 | 0.00 | 51 | 1008.5 |
| 20260503234537 | 58 | 228 | 3.0 | 10.0 | 0.00 | 0.00 | 0.00 | 51 | 1008.6 |
| 20260503233025 | 58 | 209 | 5.0 | 11.0 | 0.00 | 0.00 | 0.00 | 50 | 1008.6 |
| 20260503231524 | 59 | 180 | 3.0 | 9.0 | 0.00 | 0.00 | 0.00 | 50 | 1008.7 |
| 20260503230023 | 59 | 188 | 4.0 | 9.0 | 0.00 | 0.00 | 0.00 | 49 | 1008.8 |
| 20260503224623 | 59 | 196 | 4.0 | 13.0 | 0.00 | 0.00 | 0.00 | 49 | 1008.6 |
| 20260503223019 | 59 | 188 | 2.0 | 9.0 | 0.00 | 0.00 | 0.00 | 49 | 1008.9 |
| 20260503221520 | 59 | 241 | 5.0 | 11.0 | 0.00 | 0.00 | 0.00 | 47 | 1009.0 |
| 20260503220019 | 59 | 196 | 5.0 | 11.0 | 0.00 | 0.00 | 0.00 | 48 | 1008.9 |
| 20260503214516 | 59 | 198 | 6.0 | 10.0 | 0.00 | 0.00 | 0.00 | 48 | 1009.1 |
| 20260503213013 | 59 | 217 | 4.0 | 13.0 | 0.00 | 0.00 | 0.00 | 47 | 1009.7 |
| 20260503211511 | 59 | 221 | 6.0 | 12.0 | 0.00 | 0.00 | 0.00 | 47 | 1009.9 |
| 20260503210010 | 60 | 244 | 7.0 | 15.0 | 0.00 | 0.00 | 0.00 | 45 | 1010.0 |
| 20260503204507 | 59 | 242 | 4.0 | 14.0 | 0.00 | 0.00 | 0.00 | 47 | 1010.3 |
| 20260503203004 | 59 | 207 | 5.0 | 12.0 | 0.00 | 0.00 | 0.00 | 48 | 1010.5 |
| 20260503201502 | 58 | 184 | 7.0 | 15.0 | 0.00 | 0.00 | 0.00 | 48 | 1010.9 |
| 20260503200101 | 53 | 106 | 3.0 | 7.0 | 0.00 | 0.00 | 0.00 | 63 | 1011.7 |
| 20260503194557 | 52 | 150 | 4.0 | 7.0 | 0.00 | 0.00 | 0.00 | 63 | 1012.0 |
| 20260503193100 | 53 | 76 | 1.0 | 5.0 | 0.00 | 0.00 | 0.00 | 64 | 1013.0 |
| 20260503191654 | 52 | 63 | 1.0 | 3.0 | 0.00 | 0.00 | 0.00 | 63 | 1012.7 |
| 20260503190052 | 52 | 299 | 0.0 | 9.0 | 0.00 | 0.00 | 0.00 | 60 | 1012.8 |
| 20260503184558 | 54 | 183 | 7.0 | 19.0 | 0.00 | 0.00 | 0.00 | 52 | 1013.1 |
| 20260503183110 | 56 | 257 | 6.0 | 15.0 | 0.00 | 0.00 | 0.00 | 48 | 1013.2 |
| 20260503181549 | 57 | 214 | 6.0 | 14.0 | 0.00 | 0.00 | 0.00 | 41 | 1013.2 |
| 20260503180048 | 57 | 158 | 6.0 | 14.0 | 0.00 | 0.00 | 0.00 | 40 | 1013.3 |
| 20260503174544 | 58 | 177 | 6.0 | 12.0 | 0.00 | 0.00 | 0.00 | 42 | 1013.8 |
| 20260503173109 | 57 | 173 | 7.0 | 13.0 | 0.00 | 0.00 | 0.00 | 40 | 1014.0 |
| 20260503171545 | 58 | 182 | 6.0 | 15.0 | 0.00 | 0.00 | 0.00 | 40 | 1014.1 |
| 20260503120125 | 41 | 200 | 2.0 | 7.0 | 0.00 | 0.00 | 0.00 | 70 | 1016.0 |
| 20260503081534 | 39 | 200 | 0.0 | 5.0 | 0.00 | 0.00 | 0.00 | 71 | 1015.3 |
| 20260503071519 | 38 | 206 | 0.0 | 2.0 | 0.00 | 0.00 | 0.00 | 72 | 1015.2 |